STARLINK-35222

Satellite information

Favourite Embed

Satellite Type and Status

PAYLOADIN ORBIT

Key statistics

Satellite STARLINK-35222 at a glance.

Uptime

29

Days in orbit

Revolutions

≈ 15.4

Per day

Orbit

LEO

Low Earth Orbit

Inclination

53.2

Latest

Satellite identification and parameters

Extended collection of information and parameters for STARLINK-35222.

Object identification

Identified? True

Debris? False

Object name: STARLINK-35222

International designator: 2025-212B

Object number (NORAD): 65677

Object ID (CCSDS): 65677

Country: UNITED STATES OF AMERICA (US)

Current information (Y/N): Y

Orbital parameters

Period: 93.243 minutes

Inclination: 53.1592 deg

SMA: 6811.407 km

Apoapsis: 434.15 km

Periapsis: 432.393 km

RAAN: 279.2605 deg

Eccentricy: 0.00012902

Argument of periapsis: 101.291 deg

Mean anomaly: 197.61 deg

Mean motion: 15.44356504 rev/day

Mean motion (dot): -0.02048752 rev/day2

B* drag term: -0.049163375 1/REarth

Two-line elements (TLE)

Creation date: Oct. 20, 2025, 2:10 a.m.

Reference frame: TEME

Reference center: EARTH

Epoch: Oct. 20, 2025, midnight UTC

TLE line 0: 0 STARLINK-35222

TLE line 1: 1 65677U 25212B 25293.00001157 -.02048752 00000-0 -49163-1 0 9992

TLE line 2: 2 65677 53.1592 279.2605 0001290 101.2910 197.6100 15.44356504 5797

Live tracking on map

Real-time ground track for satellite STARLINK-35222.

In-orbit conjunctions

There are no conjunctions computed for STARLINK-35222, at the moment. Check back to stay up to date, as we update our databases every day.

Go to all conjunctions

Associated space launch

A batch of 28 satellites for the Starlink mega-constellation - SpaceX's project for space-based Internet communication system.

STARLINK-35222 was lifted into orbit during the mission ‘Falcon 9 Block 5 | Starlink Group 10-27’, on board a Falcon 9 space rocket.

The launch took place on Sept. 21, 2025, 10:53 a.m. from Space Launch Complex 40.

For more information about the launch, click the button.

Launch to space Falcon 9 Block 5 | Starlink Group 10-27
Falcon 9 Block 5 | Starlink Group 10-27

Agency: SpaceX

Status: Launch Successful

Launch date: Sept. 21, 2025, 10:53 a.m. UTC

Rocket: Falcon 9

Launch pad: Space Launch Complex 40

Location: Cape Canaveral SFS, FL, USA

...

Latest news about this satellite

News about space launch
Live coverage: SpaceX to launch 28 Starlink satellites on Falcon 9 rocket from Cape Canaveral

The Starlink 10-27 mission will be the 280th orbital launch for SpaceX from Cape Canaveral Space Force Station. Liftoff from Space Launch Complex 40 is scheduled for 6:53 a.m. EDT (1053 UTC).

News about space launch
Launch Roundup: Starlink, NRO, and New Shepard missions scheduled

Another busy week of launches has arrived, with SpaceX dominating the launch manifest with four… The post Launch Roundup: Starlink, NRO, and New Shepard missions scheduled appeared first on NASASpaceFlight.com.


Newsletter sign-up

Weekly statistics, charts and insights to help you stay on top of the space industry.